Probability
0 0 0 0 0 0 0 0 0 0 0 0 0 0 0 0 0 0 0 0 0 0 0 0 0 0 0 0 0 0 0 0 0 0 0 0 0 0 0 0 0 0 0 0
0 0 0 0 0 0 0 0 0 0 0 0 0 0 0 0 0 0 0 0 0 0 0 0 0 0 0 0 0 0 0 0 0 0 0 0 0 0 0 0 0 0 0 0
0 0 0 0 0 0 0 0 0 0 0 0 0 0 0 0 0 0 0 0 0 0 0 0 0 0 0 0 0 0 0 0 0 0 0 0 0 0 0 0 0 0 0 0
0 0 0 0 0 0 0 0 0 0 0 0 0 0 0 0 0 0 0 0 0 0 0 0 0 0 0 0 0 0 0 0 0 0 0 0 0 0 0 0 0 0 0 0
0 0 0 0 0 0 0 0 0 0 0 0 0 0 0 0 0 0 0 0 0 0 0 0 0 0 0 0 0 0 0 0 0 0 0 0 0 0 0 0 0 0 0 0
0 0 0 0 0 0 0 0 0 0 0 0 0 0 0 0 0 0 0 0 0 0 0 0 0 0 0 0 0 0 0 0 0 0 0 0 0 0 0 0 0 0 0 0
0 0 0 0 0 0 0 0 0 0 0 0 0 0 0 0 0 0 0 0 0 0 0 0 0 0 0 0 0 0 0 0 0 0 0 0 0 0 0 0 0 0 0 0
0 0 0 0 0 0 0 0 0 0 0 0 0 0 0 0 0 0 0 0 0 0 0 0 0 0 0 0 0 0 0 0 0 0 0 0 0 0 0 0 0 0 0 0
0 0 0 0 0 0 0 0 0 0 0 0 0 0 0 0 0 0 0 0 0 0 0 0 0 0 0 0 0 0 0 0 0 0 0 0 0 0 0 0 0 0 0 0
0 0 0 0 0 0 0 0 0 0 0 0 0 0 0 0 0 0 0 0 0 0 0 0 0 0 0 0 0 0 0 0 0 0 0 0 0 0 0 0 0 0 0 0
0 0 0 0 0 0 0 0 0 0 0 0 0 0 0 0 0 0 0 0 0 0 0 0 0 0 0 0 0 0 0 0 0 0 0 0 0 0 0 0 0 0 0 0
0 0 0 0 0 0 0 0 0 0 0 0 0 0 0 0 0 0 0 0 0 0 0 0 0 0 0 0 0 0 0 0 0 0 0 0 0 0 0 0 0 0 0 0
0 0 0 0 0 0 0 0 0 0 0 0 0 0 0 0 0 0 0 0 0 0 0 0 0 0 0 0 0 0 0 0 0 0 0 0 0 0 0 0 0 0 0 0
0 0 0 0 0 0 0 0 0 0 0 0 0 0 0 0 0 0 0 0 0 0 0 0 0 0 0 0 0 0 0 0 0 0 0 0 0 0 0 0 0 0 0 0
0 0 0 0 0 0 0 0 0 0 0 0 0 0 0 0 0 0 0 0 0 0 0 0 0 0 0 0 0 0 0 0 0 0 0 0 0 0 0 0 0 0 0 0
0 0 0 0 0 0 0 0 0 0 0 0 0 0 0 0 0 0 0 0 0 0 0 0 0 0 0 0 0 0 0 0 0 0 0 0 0 0 0 0 0 0 0 0
0 0 0 0 0 0 0 0 0 0 0 0 0 0 0 0 0 0 0 0 0 0 0 0 0 0 0 0 0 0 0 0 0 0 0 0 0 0 0 0 0 0 0 0
0 0 0 0 0 0 0 0 0 0 0 0 0 0 0 0 0 0 0 0 0 0 0 0 0 0 0 0 0 0 0 0 0 0 0 0 0 0 0 0 0 0 0 0
0 0 0 0 0 0 0 0 0 0 0 0 0 0 0 0 0 0 0 0 0 0 0 0 0 0 0 0 0 0 0 0 0 0 0 0 0 0 0 0 0 0 0 0
0 0 0 0 0 0 0 0 0 0 0 0 0 0 0 0 0 0 0 0 0 0 0 0 0 0 0 0 0 0 0 0 0 0 0 0 0 0 0 0 0 0 0 0
0 0 0 0 0 0 0 0 0 0 0 0 0 0 0 0 0 0 0 0 0 0 0 0 0 0 0 0 0 0 0 0 0 0 0 0 0 0 0 0 0 0 0 0
0 0 0 0 0 0 0 0 0 0 0 0 0 0 0 0 0 0 0 0 0 0 0 0 0 0 0 0 0 0 0 0 0 0 0 0 0 0 0 0 0 0 0 0
0 0 0 0 0 0 0 0 0 0 0 0 0 0 0 0 0 0 0 0 0 0 0 0 0 0 0 0 0 0 0 0 0 0 0 0 0 0 0 0 0 0 0 0
0 0 0 0 0 0 0 0 0 0 0 0 0 0 0 0 0 0 0 0 0 0 0 0 0 0 0 0 0 0 0 0 0 0 0 0 0 0 0 0 0 0 0 0
0 0 0 0 0 0 0 0 0 0 0 0 0 0 0 0 0 0 0 0 0 0 0 0 0 0 0 0 0 0 0 0 0 0 0 0 0 0 0 0 0 0 0 0
0 0 0 0 0 0 0 0 0 0 0 0 0 0 0 0 0 0 0 0 0 0 0 0 0 0 0 0 0 0 0 0 0 0 0 0 0 0 0 0 0 0 0 0
Height
5705 5705 5705 5706 5705 5705 5704 5704 5704 5705 5704 5704 5704 5705 5706 5706 5706 5707 5707 5707 5708 5708 5708 5708 5709 5709 5709 5709 5709 5709 5709 5709 5710 5710 5711 5713 5715 5717 5720 5722 5724 5726 5728 5729
5695 5696 5697 5696 5696 5696 5695 5695 5696 5696 5696 5695 5696 5697 5698 5698 5699 5700 5700 5700 5700 5700 5700 5701 5701 5701 5701 5701 5701 5701 5701 5702 5702 5703 5704 5706 5707 5709 5712 5714 5716 5718 5719 5721
5685 5688 5687 5686 5686 5686 5686 5687 5687 5687 5687 5686 5687 5689 5690 5691 5691 5692 5692 5692 5692 5693 5693 5693 5693 5693 5694 5694 5694 5693 5693 5694 5695 5695 5696 5698 5700 5702 5704 5706 5707 5709 5710 5712
5675 5677 5677 5676 5677 5677 5677 5678 5678 5677 5677 5677 5679 5678 5683 5683 5683 5683 5684 5684 5685 5685 5685 5685 5686 5686 5686 5686 5686 5686 5686 5687 5687 5688 5689 5690 5692 5694 5696 5697 5698 5700 5702 5703
5666 5667 5667 5667 5668 5667 5668 5668 5668 5668 5668 5668 5670 5670 5674 5674 5674 5675 5676 5676 5677 5677 5677 5678 5678 5678 5678 5679 5679 5679 5679 5680 5680 5681 5682 5683 5684 5686 5687 5688 5690 5692 5693 5694
5657 5657 5657 5657 5658 5657 5657 5658 5658 5658 5658 5659 5662 5661 5663 5665 5665 5666 5667 5668 5669 5669 5670 5670 5670 5670 5671 5671 5671 5672 5672 5672 5673 5673 5674 5675 5676 5677 5679 5680 5681 5683 5684 5684
5647 5648 5647 5647 5647 5648 5648 5649 5648 5648 5648 5650 5653 5652 5655 5656 5657 5658 5659 5660 5660 5661 5661 5662 5662 5663 5663 5663 5663 5664 5664 5665 5665 5666 5666 5667 5668 5669 5670 5671 5672 5674 5675 5675
5636 5638 5638 5637 5637 5638 5639 5639 5640 5640 5640 5642 5643 5643 5647 5648 5648 5649 5650 5651 5652 5652 5653 5653 5654 5654 5655 5655 5655 5656 5656 5656 5657 5658 5658 5659 5660 5660 5662 5663 5663 5664 5666 5666
5625 5626 5627 5627 5627 5628 5629 5629 5631 5631 5631 5632 5634 5636 5638 5638 5639 5640 5641 5642 5643 5643 5644 5645 5645 5646 5646 5646 5647 5647 5648 5648 5649 5649 5650 5651 5651 5652 5653 5653 5654 5655 5656 5656
5614 5614 5616 5617 5618 5618 5619 5621 5622 5621 5622 5622 5625 5628 5629 5628 5629 5630 5632 5632 5633 5634 5635 5636 5637 5637 5637 5638 5638 5639 5639 5639 5640 5641 5641 5642 5643 5643 5643 5644 5645 5645 5646 5646
5604 5603 5605 5606 5607 5608 5610 5611 5611 5612 5613 5614 5616 5620 5618 5618 5619 5620 5622 5623 5624 5624 5625 5626 5627 5628 5628 5629 5629 5630 5630 5631 5631 5632 5633 5633 5634 5634 5634 5635 5635 5636 5636 5636
5594 5594 5594 5596 5597 5597 5598 5600 5602 5603 5603 5604 5606 5611 5609 5609 5609 5610 5612 5613 5614 5615 5616 5617 5618 5618 5619 5619 5620 5621 5621 5622 5623 5623 5624 5624 5624 5625 5625 5625 5625 5626 5626 5626
5585 5585 5584 5586 5589 5588 5588 5590 5591 5592 5593 5594 5596 5600 5599 5599 5600 5600 5602 5603 5604 5605 5606 5607 5608 5608 5609 5610 5610 5611 5612 5613 5613 5614 5614 5615 5615 5615 5616 5616 5616 5616 5616 5616
5576 5575 5576 5576 5577 5577 5577 5579 5580 5581 5581 5583 5586 5588 5590 5589 5589 5590 5591 5593 5593 5595 5596 5597 5597 5598 5599 5600 5601 5602 5602 5603 5604 5604 5605 5605 5605 5606 5606 5606 5606 5606 5606 5606
5566 5566 5566 5566 5566 5567 5567 5568 5569 5570 5571 5572 5575 5576 5578 5579 5578 5580 5581 5582 5583 5584 5586 5587 5587 5588 5589 5590 5591 5592 5592 5593 5594 5594 5595 5595 5596 5596 5596 5596 5596 5596 5596 5596
5557 5557 5556 5557 5557 5556 5557 5558 5559 5560 5560 5561 5563 5565 5567 5567 5568 5569 5570 5571 5572 5574 5575 5576 5577 5578 5579 5580 5581 5582 5583 5583 5584 5584 5585 5585 5586 5586 5586 5586 5586 5586 5585 5585
5549 5547 5546 5547 5547 5546 5547 5550 5549 5549 5550 5550 5550 5554 5554 5555 5556 5557 5558 5559 5561 5563 5564 5566 5567 5568 5569 5570 5571 5572 5573 5574 5574 5574 5575 5575 5575 5576 5576 5576 5576 5575 5575 5575
5540 5539 5537 5537 5537 5537 5542 5540 5539 5539 5539 5540 5540 5541 5542 5542 5544 5545 5547 5548 5549 5551 5553 5555 5556 5558 5559 5560 5561 5562 5563 5564 5564 5565 5565 5565 5565 5565 5566 5566 5565 5565 5565 5565
5532 5530 5528 5527 5526 5527 5530 5530 5529 5528 5528 5529 5529 5530 5531 5531 5531 5534 5535 5536 5538 5540 5542 5544 5546 5547 5549 5550 5551 5552 5553 5554 5554 5555 5555 5555 5555 5556 5556 5555 5556 5555 5556 5556
5523 5521 5520 5518 5517 5517 5520 5519 5519 5519 5518 5519 5518 5519 5520 5520 5521 5523 5524 5525 5526 5528 5530 5532 5534 5536 5538 5539 5540 5542 5543 5544 5545 5545 5545 5545 5546 5546 5546 5546 5546 5546 5546 5547
5514 5513 5512 5510 5508 5508 5510 5509 5509 5510 5509 5508 5508 5508 5509 5509 5510 5512 5512 5514 5515 5517 5519 5521 5524 5525 5527 5529 5530 5531 5533 5534 5535 5535 5536 5536 5536 5536 5536 5536 5536 5537 5537 5538
5505 5504 5503 5502 5501 5503 5500 5500 5500 5499 5498 5498 5497 5497 5498 5498 5499 5500 5501 5503 5504 5506 5508 5511 5513 5515 5516 5518 5520 5521 5523 5524 5525 5525 5526 5527 5527 5527 5527 5527 5528 5528 5528 5529
5496 5495 5493 5493 5494 5492 5490 5490 5489 5489 5488 5488 5487 5487 5488 5488 5489 5490 5491 5492 5494 5496 5498 5500 5502 5505 5506 5508 5510 5511 5513 5513 5514 5515 5516 5517 5518 5518 5519 5519 5519 5519 5520 5521
5488 5486 5485 5484 5484 5483 5482 5481 5480 5479 5478 5478 5477 5477 5477 5478 5478 5479 5481 5482 5484 5486 5488 5490 5492 5494 5496 5498 5500 5501 5503 5504 5505 5506 5507 5508 5508 5509 5510 5510 5510 5511 5512 5512
5479 5477 5476 5475 5476 5474 5474 5472 5471 5470 5469 5468 5468 5468 5467 5468 5468 5469 5471 5473 5474 5476 5479 5480 5482 5484 5486 5488 5490 5492 5493 5494 5496 5497 5498 5499 5499 5500 5501 5501 5502 5502 5503 5504
5471 5469 5468 5467 5466 5464 5464 5462 5461 5461 5460 5459 5459 5459 5459 5459 5459 5460 5461 5463 5465 5467 5469 5470 5472 5474 5477 5479 5480 5482 5483 5485 5487 5488 5489 5490 5491 5491 5492 5493 5493 5494 5495 5495
Wind_Speed
33 33 32 31 32 32 32 32 32 31 32 32 31 30 30 30 29 29 28 28 29 29 29 29 28 28 28 29 29 29 30 30 30 30 31 32 33 33 34 35 35 34 35 36
34 34 32 33 33 33 33 33 33 33 33 33 33 31 30 30 30 30 29 29 29 30 30 30 29 29 29 29 29 29 29 30 30 30 31 32 33 34 34 35 35 36 36 36
34 33 33 34 34 34 34 34 34 34 34 35 34 33 31 30 30 30 30 30 30 30 30 30 30 30 29 29 29 29 29 30 30 30 31 32 33 34 34 35 35 36 36 36
34 33 34 35 35 36 36 35 35 35 36 36 35 35 31 31 30 31 30 30 30 30 30 30 29 29 29 29 29 29 30 30 31 31 32 32 32 33 33 34 34 35 35 36
34 33 34 34 34 35 36 36 36 36 36 37 36 36 33 32 31 31 31 30 30 30 30 30 29 29 29 29 29 29 30 31 31 31 31 31 31 32 33 33 34 35 35 36
33 33 34 34 34 35 36 36 37 37 37 38 35 36 34 32 32 31 31 30 30 30 30 30 30 30 29 29 29 29 30 30 31 31 31 30 31 32 32 33 33 34 35 36
34 33 34 34 35 35 35 34 35 36 37 37 35 36 34 33 32 32 32 31 31 31 31 31 30 30 30 29 29 29 29 30 31 31 30 30 30 31 32 33 33 34 35 35
36 35 34 34 35 35 35 34 34 36 37 37 35 35 35 34 33 33 32 32 32 32 32 32 31 30 30 30 29 29 29 30 31 31 30 31 31 31 31 32 33 34 34 35
37 37 36 36 35 35 35 35 35 35 36 36 36 35 35 35 34 34 33 33 33 33 32 32 31 30 30 30 30 29 29 30 30 31 30 31 31 31 32 32 33 33 34 35
37 38 36 36 36 35 35 34 34 35 35 36 36 34 34 34 35 35 34 33 34 34 34 33 32 31 30 30 30 29 29 30 30 31 31 32 32 32 32 33 33 34 35 36
36 38 37 35 35 34 35 35 35 36 37 36 35 33 32 34 35 35 35 34 34 34 34 33 33 32 32 32 31 30 31 31 31 31 32 33 33 32 33 33 33 34 35 36
35 37 37 36 35 35 35 35 35 36 37 37 37 35 33 34 35 36 36 35 35 35 35 34 33 32 32 32 32 32 32 32 32 32 32 33 33 33 33 33 34 34 35 35
34 36 36 35 34 35 37 36 37 37 39 39 38 36 34 35 36 37 37 36 36 36 36 35 34 33 32 33 33 33 32 33 33 33 33 33 33 34 34 34 34 34 34 34
34 35 35 34 32 33 35 37 38 39 41 40 40 38 36 36 38 38 38 38 37 37 37 35 35 34 34 34 34 34 33 33 33 33 33 33 33 34 34 34 34 35 35 35
34 34 34 34 33 34 35 36 37 39 40 42 41 40 38 38 38 38 38 38 38 38 37 36 35 34 34 34 34 35 34 34 34 33 34 34 34 34 34 34 35 35 35 35
33 33 33 33 32 33 35 35 37 38 40 42 42 42 40 40 40 39 38 38 38 38 37 36 35 35 35 34 34 35 34 34 34 33 34 34 35 35 35 35 35 35 35 35
33 33 33 32 32 33 35 34 35 36 37 39 41 40 40 40 40 40 39 39 39 39 39 38 37 35 35 34 34 34 34 34 34 34 35 35 35 35 35 35 35 35 34 34
33 32 33 33 32 34 33 33 35 36 37 37 38 39 39 40 40 40 39 39 39 39 39 38 37 36 35 35 34 33 33 34 34 34 34 34 34 34 34 34 34 34 33 32
32 31 32 32 33 35 34 34 34 35 36 37 38 38 38 38 39 40 40 39 39 39 39 38 37 36 35 35 35 34 33 33 33 33 33 33 33 33 33 32 32 32 32 31
31 30 31 31 32 33 32 33 33 34 36 36 38 38 38 38 39 38 38 38 38 39 39 38 37 36 36 36 35 35 34 34 33 33 32 32 32 32 31 31 31 31 30 31
30 30 30 30 30 31 31 32 32 33 34 35 36 37 37 38 37 36 36 36 37 38 37 37 36 36 35 36 35 35 34 34 33 32 31 31 31 30 30 30 30 30 30 30
30 29 29 29 30 30 30 30 31 33 34 35 36 36 37 36 36 36 36 35 35 35 36 36 35 35 35 35 35 35 34 33 33 32 32 31 30 30 30 30 29 29 30 30
29 29 29 30 30 30 30 31 31 32 33 34 34 34 35 35 35 34 34 35 34 34 34 35 35 35 35 35 35 34 33 33 32 32 31 31 30 29 29 29 29 29 29 30
28 28 29 29 29 30 30 31 32 32 33 33 32 33 34 34 33 33 33 33 33 33 33 33 34 34 34 34 34 34 33 33 32 31 31 31 30 29 29 29 28 28 28 28
27 27 29 30 30 31 31 31 31 30 31 31 30 30 31 31 31 31 31 31 31 31 31 32 32 32 32 32 32 32 32 32 31 30 30 30 29 28 28 28 28 28 28 28
27 28 29 29 30 31 30 30 30 30 29 29 29 28 28 29 29 29 28 28 29 29 30 30 30 31 31 31 31 30 30 30 30 29 29 29 29 28 28 27 27 27 27 27
Wind_Direction
273 271 271 271 271 271 270 269 269 268 268 268 267 269 270 270 270 270 270 270 270 271 271 270 269 268 269 269 268 266 264 262 260 259 258 257 256 255 255 255 256 256 257 259
271 271 271 270 269 269 268 268 268 268 269 269 268 268 269 270 270 270 271 271 270 270 271 270 271 270 269 267 266 265 264 263 262 260 259 258 257 257 257 257 257 257 259 260
270 271 270 268 268 267 266 267 267 268 269 268 268 267 267 268 269 269 269 271 272 271 272 271 271 272 272 270 267 266 264 263 262 261 261 260 259 259 259 258 259 259 259 260
271 269 267 268 267 266 266 267 267 267 268 268 268 269 267 268 268 269 269 270 271 272 273 273 273 273 273 271 268 266 265 265 264 263 262 262 260 260 260 259 260 261 260 261
271 269 267 266 267 267 267 267 267 267 267 267 267 269 268 268 268 268 269 270 270 271 272 272 273 273 272 271 269 267 266 265 265 264 263 263 262 261 261 261 262 262 261 263
272 271 268 266 266 266 267 267 267 267 267 267 267 269 269 268 269 268 268 269 269 270 270 271 271 272 272 271 269 268 267 266 266 266 264 264 264 264 262 262 263 263 264 264
272 271 270 268 266 264 264 265 267 267 266 268 268 268 269 269 270 269 269 269 269 270 270 270 270 271 272 271 269 268 267 266 266 266 266 266 266 265 264 264 265 265 265 265
274 272 269 268 266 265 264 263 264 266 268 268 268 268 269 269 270 269 269 268 269 270 270 270 270 270 270 270 268 267 266 266 265 265 266 266 266 265 265 264 265 266 266 265
275 272 269 266 266 265 264 262 263 265 267 268 268 268 268 269 269 269 269 268 268 269 269 269 270 271 270 269 268 268 266 265 265 265 265 266 267 265 264 264 264 266 266 266
276 272 268 267 264 263 263 262 261 261 265 267 267 269 270 270 269 269 270 268 267 267 268 269 269 270 269 269 268 267 266 265 265 264 265 266 266 266 266 266 266 267 267 266
277 273 268 266 264 261 260 260 260 260 262 264 267 267 268 269 269 269 269 269 267 268 268 268 268 269 269 268 267 265 265 264 264 264 264 264 265 266 267 267 267 267 268 267
278 275 271 268 266 262 260 260 259 258 259 261 264 265 266 267 268 269 268 268 267 267 268 267 267 267 268 267 266 265 264 264 264 264 263 264 265 267 267 268 267 268 268 267
279 277 275 271 268 266 263 261 260 259 259 260 262 264 265 265 267 268 268 268 267 267 266 267 267 267 267 267 266 265 264 264 264 265 264 265 266 267 268 268 269 270 270 269
279 276 273 272 270 267 264 262 261 260 260 261 261 263 262 264 265 266 267 267 267 267 266 266 266 265 266 266 265 264 264 264 265 265 265 265 267 268 269 269 271 271 271 271
281 278 274 271 268 264 263 261 261 261 261 261 261 261 261 262 264 265 265 265 264 264 264 264 264 264 265 265 264 264 264 265 265 265 265 266 267 268 269 270 271 271 271 271
281 279 276 273 271 268 265 264 263 263 262 262 262 261 261 261 261 262 262 261 261 261 261 262 262 263 263 263 263 263 264 265 266 267 266 267 267 268 269 270 271 271 271 271
283 280 277 274 272 270 271 270 267 266 264 263 262 263 261 261 260 261 261 261 260 259 259 259 260 262 262 262 262 262 263 264 266 267 267 268 268 269 269 270 270 271 271 270
285 281 278 276 274 272 275 273 271 270 267 265 264 264 263 261 261 260 260 261 260 258 257 258 260 261 261 262 261 261 262 264 266 268 268 268 269 270 271 271 270 270 271 268
285 281 278 276 276 275 274 274 274 272 269 266 265 264 264 263 263 261 260 261 260 258 257 257 258 260 261 261 262 261 262 264 266 268 268 267 269 269 270 270 270 270 268 267
284 281 279 278 277 277 279 277 274 273 271 269 268 266 265 265 263 262 260 260 258 257 257 257 258 259 259 260 261 261 262 264 266 268 267 268 268 269 270 270 270 269 268 267
283 280 278 277 276 276 277 275 274 272 272 271 270 269 268 267 265 264 262 261 259 256 255 256 257 258 259 259 259 261 263 264 265 267 267 268 269 269 270 270 269 268 268 267
283 281 278 275 273 273 275 274 273 273 273 272 272 271 270 268 267 266 263 261 259 256 256 256 257 257 258 258 259 260 262 264 264 265 266 268 269 270 270 270 269 268 267 265
282 281 278 274 272 273 273 273 273 273 274 274 273 271 270 268 267 265 263 260 259 256 257 257 257 256 257 258 259 259 261 262 263 264 265 267 268 269 269 269 268 267 266 264
281 278 277 275 274 271 271 271 272 273 274 275 274 272 270 268 266 264 261 259 259 256 257 258 257 256 256 258 259 260 260 261 263 264 265 266 267 267 268 267 266 266 265 264
283 280 278 276 275 271 272 272 271 271 272 274 275 275 272 268 266 264 260 257 257 257 258 258 256 254 255 256 258 259 259 260 260 262 264 265 266 266 266 265 264 264 264 263
282 281 282 281 277 275 276 274 271 272 272 272 272 271 271 269 266 263 260 257 257 256 258 258 256 255 255 256 257 257 258 258 258 261 263 264 265 264 263 262 262 262 263 264